Regional Weather Roundup
Issued by NWS Cleveland, OH

Home | Current Version | Previous Version | Graphics & Text | Print | Product List | Glossary On
Versions: 1 2 3 4 5 6 7 8 9 10 11 12 13 14 15 16 17 18 19 20 21 22 23 24 25 26 27 28 29 30 31 32 33 34 35 36 37 38 39 40 41 42 43 44 45 46 47 48 49 50
000
ASUS41 KCLE 030400
RWRCLE
OHIO REGIONAL WEATHER ROUNDUP
NATIONAL WEATHER SERVICE WILMINGTON, OH
1100 PM EST MON MAR 02 2015

NOTE: "FAIR" INDICATES FEW OR NO CLOUDS BELOW 12,000 FEET WITH NO
SIGNIFICANT WEATHER AND/OR OBSTRUCTIONS TO VISIBILITY.

OHZ001>008-015>018-024>027-034-035-043-044-030500-
   NORTHWEST OHIO

CITY           SKY/WX    TMP DP  RH WIND       PRES   REMARKS
DEFIANCE       CLOUDY    22  13  68 S3        30.38F
FINDLAY        FAIR      15   9  76 S6        30.37F WCI   6
TOLEDO EXPRESS FAIR      20  13  74 S3        30.38F
TOLEDO EXEC    FAIR      16   9  74 S5        30.39F WCI   9
LIMA           FAIR      18  10  71 SE6       30.36F WCI  10
$$

OHZ009>014-019>023-028>033-038-089-030500-
   NORTHEAST OHIO

CITY           SKY/WX    TMP DP  RH WIND       PRES   REMARKS
CLE-HOPKINS    CLOUDY    19  10  68 S6        30.42F WCI  11
CLE-LAKEFRONT  FAIR      23  12  62 S7        30.40F WCI  15
CUY CO. ARPT   MOCLDY    16  10  79 SE6       30.40F WCI   7
LORAIN-ELYRIA  FAIR      14   7  73 SW7       30.40S WCI   4
ASHTABULA      FAIR       6   2  83 CALM      30.40F
AKRON-CANTON   FAIR      16   8  71 CALM      30.37F
WOOSTER        NOT AVBL
MANSFIELD      FAIR      13   9  84 SE7       30.36S WCI   3
YOUNGSTOWN     MOCLDY    13   6  74 E5        30.37F WCI   5
$$

OHZ042-051>053-060>062-070>072-077>081-030500-
  SOUTHWEST OHIO

CITY           SKY/WX    TMP DP  RH WIND       PRES   REMARKS
CINC-COVINGTON CLOUDY    28  17  63 E7        30.35S WCI  21
CINC-LUNKEN    FAIR      27  16  63 N3        30.39F
HAMILTON       FAIR      26  16  65 E5        30.38F WCI  20
DAYTON         NOT AVBL
WRIGHT-PAT AFB MOCLDY    23  14  69 E2        30.37F
DAYTON GENERAL FAIR      25  14  63 E7        30.35F WCI  17
WILMINGTON     MOCLDY    22  12  65 E7        30.35F WCI  13
$$

OHZ036-037-039>041-045>050-054>059-063>069-073>076-082>088-030500-
  CENTRAL AND SOUTHEAST OHIO

CITY           SKY/WX    TMP DP  RH WIND       PRES   REMARKS
COLUMBUS       MOCLDY    21  12  68 CALM      30.38F
OSU AIRPORT    FAIR      19  10  68 E3        30.37F
BOLTON FIELD   NOT AVBL
RICKENBACK AFB NOT AVBL
NEWARK         FAIR      12   7  80 CALM      30.39S
MARION         FAIR      10   5  80 SE5       30.36F WCI   2
LANCASTER      FAIR      14  11  87 CALM      30.38F FOG
ZANESVILLE     FAIR      18  11  74 CALM      30.39F
NEW PHILLY     FAIR      14   7  73 CALM      30.40F
$$



USA.gov is the U.S. government's official web portal to all federal, state and local government web resources and services.